Regional Weather Roundup
Issued by NWS

Home | Current Version | Previous Version | Graphics & Text | Print | Product List | Glossary On
Versions: 1 2 3 4 5 6 7 8 9 10 11 12 13 14 15 16 17 18 19 20 21 22 23 24 25 26 27 28 29 30 31 32 33 34 35 36 37 38 39 40 41 42 43 44 45 46 47 48 49 50
000
ASUS45 KABQ 302310
RWRNM
NEW MEXICO REGIONAL WEATHER ROUNDUP
NATIONAL WEATHER SERVICE ALBUQUERQUE NM
500 PM MDT SUN AUG 30 2015

NOTE: "FAIR" MEANS FEW OR NO CLOUDS BELOW 12,000 FEET AGL WITH NO
       SIGNIFICANT WEATHER OR OBSTRUCTIONS TO VISION.

      THIS PRODUCT IS RELEASED AS TWO VERSIONS.  ONE VERSION NEAR
      THE TOP OF THE HOUR CONTAINING PRELIMINARY DATA FROM ALBUQUERQUE
      AND OTHER STATIONS.  A FINAL VERSION WITH ADDITIONAL DATA IS
      ISSUED ABOUT 10 MINUTES AFTER THE HOUR.

NMZ501-503-504-510>518-310000-
NORTHWEST PLATEAU/NORTHCENTRAL MOUNTAINS

CITY           SKY/WX    TMP DP  RH WIND       PRES   REMARKS
FARMINGTON     SUNNY     83  42  23 W10       30.09F
LOS ALAMOS     MOSUNNY   80  37  21 SW7       30.24F
SANTA FE       MOSUNNY   84  36  18 CALM      30.16F
TAOS           SUNNY     82  36  18 W9        30.22F
ANGEL FIRE     FAIR      74  42  32 NW10      30.33S

$$
NMZ402-403-502-505>509-310000-
WESTCENTRAL MOUNTAINS/SOUTHWEST MOUNTAINS

CITY           SKY/WX    TMP DP  RH WIND       PRES   REMARKS
GALLUP         TSTM      72  53  51 E9        30.17S
GRANTS         CLOUDY    79  44  29 W10G17    30.20S
SILVER CITY      N/A     86  46  25 S5        30.14F

$$
NMZ407-409-411-412-310000-
SOUTHERN DESERTS

CITY           SKY/WX    TMP DP  RH WIND       PRES   REMARKS
LORDSBURG      CLOUDY    90  50  25 NW9       30.02F
DEMING         MOSUNNY   91  50  24 CALM      30.04F
LAS CRUCES     SUNNY     90  44  19 CALM      30.06F
HOLLOMAN AFB   MOSUNNY   91  51  24 N7        30.01F
ALAMOGORDO     MOSUNNY   91  48  22 SW7       30.04F
T OR C         MOSUNNY   91  43  18 VRB7      30.06F

$$
NMZ519>523-310000-
CENTRAL VALLEYS/CENTRAL HIGHLANDS

CITY           SKY/WX    TMP DP  RH WIND       PRES   REMARKS
ALBUQUERQUE    MOSUNNY   92  40  16 N5        30.09F
DOUBLE EAGLE   MOSUNNY   90  46  22 S13G20    30.13F
MORIARTY ARPT  FAIR      87  38  18 W6        30.17F
CLINES CORNERS MOSUNNY   83  45  26 W13G24    30.21F
BELEN          FAIR      90  38  15 NE5       30.08F
SOCORRO        FAIR      91  37  14 CALM      30.06F

$$
NMZ524>526-539-540-310000-
SOUTHCENTRAL MOUNTAINS

CITY           SKY/WX    TMP DP  RH WIND       PRES   REMARKS
RUIDOSO        MOSUNNY   77  48  36 MISG      30.26F

$$
NMZ527>531-310000-
NORTHEAST HIGHLANDS/NORTHEAST PLAINS

CITY           SKY/WX    TMP DP  RH WIND       PRES   REMARKS
LAS VEGAS      MOSUNNY   85  42  22 SW13      30.20F
RATON          MOSUNNY   88  37  16 S12       30.11F
CLAYTON        SUNNY     87  52  29 S15       30.06F

$$
NMZ532>537-310000-
EASTCENTRAL PLAINS

CITY           SKY/WX    TMP DP  RH WIND       PRES   REMARKS
TUCUMCARI      SUNNY     91  51  25 SW12      30.01F
CANNON AFB     SUNNY     89  44  21 SW13      30.06F
CLOVIS AIRPORT SUNNY     88  46  23 SE13G18   30.07F

$$
NMZ028-029-538-310000-
SOUTHEAST PLAINS

CITY           SKY/WX    TMP DP  RH WIND       PRES   REMARKS
ROSWELL        SUNNY     91  45  20 S8        30.03F
ARTESIA        SUNNY     90  48  24 SE8       30.03F
CARLSBAD       SUNNY     92  49  22 SE8       29.99F
HOBBS          SUNNY     86  50  28 VRB5      30.06F


$$


USA.gov is the U.S. government's official web portal to all federal, state and local government web resources and services.